GEESAT-3 09

Last updated on Sun Oct 06 2024 00:02:04 GMT+0000 (Coordinated Universal Time)

1 61019U 24159J 24279.54027474 .00018282 00000+0 17984-2 0 9996 2 61019 49.9951 99.0747 0011784 341.8906 18.1615 14.92042431 4437
UTC large
Height (km)
Speed (km/s)
/
Latitude / Longitude
Inclination (degrees)
Orbital Period (minutes)
Azimuth
Elevation
Range (km)
Doppler Factor

Next 0 passes for location: London (51.5072 / 0.1276)

Sorry there are no passes over London.